KPBIKEYW

Guest
Details From KPBI - Palm Beach Intl
To KEYW - Key West Intl
Flight Number -
Tags generated
Created
Modified
Stats Distance 156 nm / 289 km
Max Altitude 0 ft / 0 m
Waypoints 3
Social Downloads 2
Likes 0
Share VATSIM

Download

Looking for another format? Having issues loading an existing format? Contact us
Advertisement - Login to hide

Notes

None

Route

KPBI DVALL KEYW

ID Type Via Altitude Latitude Longitude Leg Dist Tot Dist Heading (true) Name
O KPBI APT - 0 ft / 0 m 26.68286˚ -80.09700˚ - 0 nm - Palm Beach Intl
DVALL FIX - 0 ft / 0 m 25.51469˚ -80.99896˚ 85 nm 85 nm 215° / 215° -
O KEYW APT - 0 ft / 0 m 24.55612˚ -81.75955˚ 70 nm 156 nm 216° / 216° Key West Intl

Altitude Profile

Advertisement - Login to hide

KPBI

Details ICAO KPBI (PBI)
Name Palm Beach Intl
Region United States
Timezone America/New_York (UTC-4.0)
Stats Elevation 19 ft / 6 m (AMSL)
Location 26.682862° -80.096996°
Runways 3
Magnetic Variation 6.935° W

METAR

KPBI 240453Z 13004KT 10SM SCT021 SCT034 BKN110 24/24 A3009 RMK AO2 RAB00E12 SLP187 P0000 T02440239 402940233 $

Decode

TAF

TAF AMD KPBI 240259Z 2403/2424 11005KT P6SM SCT020 SCT120 TEMPO 2403/2404 VRB10KT 4SM SHRA SCT015 BKN030 FM241200 12007KT P6SM VCSH SCT025 BKN080 FM241800 13008KT P6SM VCTS SCT025CB BKN050 BKN100

Decode

Departure Runways

ID Width Length Bearing (true) Bearing (mag) Surface Threshold Offset Overrun Length
10L 150 ft / 46 m 9,993 ft / 3,046 m 92.79° 99.72° Asphalt 1,200 ft / 366 m 0 ft / 0 m
10R 75 ft / 23 m 3,208 ft / 978 m 92.79° 99.72° Asphalt 0 ft / 0 m 0 ft / 0 m
14 150 ft / 46 m 6,939 ft / 2,115 m 135.33° 142.26° Asphalt 0 ft / 0 m 0 ft / 0 m
28L 75 ft / 23 m 3,208 ft / 978 m 272.79° 279.72° Asphalt 0 ft / 0 m 0 ft / 0 m
28R 150 ft / 46 m 9,993 ft / 3,046 m 272.80° 279.73° Asphalt 811 ft / 247 m 0 ft / 0 m
32 150 ft / 46 m 6,939 ft / 2,115 m 315.34° 322.27° Asphalt 428 ft / 130 m 0 ft / 0 m

KEYW

Details ICAO KEYW (EYW)
Name Key West Intl
Region United States
Timezone America/New_York (UTC-4.0)
Stats Elevation 2 ft / 1 m (AMSL)
Location 24.556124° -81.759546°
Runways 1
Magnetic Variation 5.593° W

METAR

KEYW 240453Z AUTO 11006KT 10SM CLR 26/24 A3006 RMK AO2 SLP177 T02610244 402830261

Decode

TAF

KEYW 232339Z 2400/2424 10009KT P6SM FEW025 BKN150

Decode

Destination Runways

ID Width Length Bearing (true) Bearing (mag) Surface Threshold Offset Overrun Length
09 100 ft / 30 m 4,794 ft / 1,461 m 89.38° 94.97° Asphalt 151 ft / 46 m 0 ft / 0 m
27 100 ft / 30 m 4,794 ft / 1,461 m 269.39° 274.98° Asphalt 151 ft / 46 m 0 ft / 0 m

Popular Alternatives